TimeEDT,TemperatureF,Dew PointF,Humidity,Sea Level PressureIn,VisibilityMPH,Wind Direction,Wind SpeedMPH,Gust SpeedMPH,PrecipitationIn,Events,Conditions,WindDirDegrees,DateUTC
12:51 AM,84.9,68.0,57,30.06,10.0,SW,9.2,-,N/A,,Clear,220,2013-07-18 04:51:00
1:51 AM,84.9,68.0,57,30.05,10.0,SW,6.9,-,N/A,,Clear,220,2013-07-18 05:51:00
2:51 AM,84.0,69.1,61,30.03,10.0,Calm,Calm,-,N/A,,Clear,0,2013-07-18 06:51:00
3:51 AM,84.0,69.1,61,30.02,10.0,Calm,Calm,-,N/A,,Partly Cloudy,0,2013-07-18 07:51:00
4:51 AM,84.9,68.0,57,30.02,10.0,Calm,Calm,-,N/A,,Clear,0,2013-07-18 08:51:00
5:51 AM,84.9,68.0,57,30.02,10.0,West,5.8,-,N/A,,Scattered Clouds,270,2013-07-18 09:51:00
6:51 AM,82.9,69.1,63,30.03,10.0,NW,9.2,-,N/A,,Partly Cloudy,310,2013-07-18 10:51:00
7:51 AM,84.0,70.0,63,30.04,10.0,WNW,9.2,-,N/A,,Partly Cloudy,300,2013-07-18 11:51:00
8:51 AM,86.0,70.0,59,30.05,10.0,NNW,6.9,-,N/A,,Partly Cloudy,330,2013-07-18 12:51:00
9:51 AM,89.1,71.1,55,30.04,10.0,NNW,5.8,-,N/A,,Partly Cloudy,330,2013-07-18 13:51:00
10:51 AM,91.9,69.1,47,30.03,10.0,NNW,10.4,16.1,N/A,,Partly Cloudy,330,2013-07-18 14:51:00
11:51 AM,93.9,68.0,43,30.03,10.0,NNW,9.2,-,N/A,,Partly Cloudy,330,2013-07-18 15:51:00
12:51 PM,95.0,64.9,37,30.02,10.0,WNW,5.8,-,N/A,,Partly Cloudy,300,2013-07-18 16:51:00
1:51 PM,97.0,64.9,35,30.00,10.0,North,5.8,-,N/A,,Partly Cloudy,350,2013-07-18 17:51:00
2:51 PM,96.1,66.0,37,29.99,10.0,NW,6.9,-,N/A,,Scattered Clouds,310,2013-07-18 18:51:00
3:51 PM,99.0,64.0,32,29.97,10.0,WSW,12.7,18.4,N/A,,Scattered Clouds,250,2013-07-18 19:51:00
4:51 PM,96.1,64.9,36,29.96,10.0,NW,11.5,-,N/A,,Scattered Clouds,310,2013-07-18 20:51:00
5:51 PM,96.1,64.0,35,29.95,10.0,WNW,5.8,-,N/A,,Scattered Clouds,300,2013-07-18 21:51:00
6:51 PM,96.1,64.9,36,29.96,10.0,WNW,8.1,-,N/A,,Scattered Clouds,290,2013-07-18 22:51:00
7:51 PM,93.0,66.0,41,29.96,10.0,NNW,3.5,-,N/A,,Scattered Clouds,330,2013-07-18 23:51:00
8:51 PM,95.0,66.0,38,29.97,10.0,WSW,9.2,-,N/A,,Scattered Clouds,250,2013-07-19 00:51:00
9:51 PM,91.9,68.0,45,29.97,10.0,West,3.5,-,N/A,,Scattered Clouds,280,2013-07-19 01:51:00
10:51 PM,93.0,69.1,45,29.96,10.0,WSW,5.8,-,N/A,,Mostly Cloudy,250,2013-07-19 02:51:00
11:51 PM,93.0,69.1,45,29.94,10.0,SSW,10.4,-,N/A,,Scattered Clouds,210,2013-07-19 03:51:00